Tracking 29528 objects as of 12-Sep-2024
HD Live streaming from Space Station
objects crossing your sky now

FARADAY_PHOENIX

Track FARADAY_PHOENIX now!
10-day predictions


NORAD ID: 48924
Int'l Code: 2021-059AX
Perigee: 473.7 km
Apogee: 492.0 km
Inclination: 97.7 °
Period: 94.1 minutes
Semi major axis: 6853 km
RCS: Unknown
Launch date: June 30, 2021
Source: United Kingdom (UK)
Launch site: AIR FORCE EASTERN TEST RANGE (AFETR)
Your satellite tracking list
Your tracking list is empty




NASA's NSSDC Master Catalog

Two Line Element Set (TLE):
1 48924U 21059AX  24255.89916187  .00026295  00000-0  90251-3 0  9995
2 48924  97.6590  43.6099 0013365 128.8146 231.4289 15.30041588178194
Source of the keplerian elements: AFSPC